QPF
0.00 0.00 0.00 0.00 0.00 0.00 0.00 0.01 0.01 0.01 0.01 0.01 0.02 0.03 0.02 0.03 0.03 0.03 0.02 0.02 0.02 0.02 0.01 0.01 0.01 0.02 0.01 0.00 0.00 0.00 0.00 0.00 0.01 0.01 0.01 0.00 0.01 0.02 0.04 0.03 0.02 0.01 0.01 0.01
0.00 0.00 0.00 0.00 0.00 0.00 0.00 0.01 0.01 0.01 0.01 0.01 0.01 0.02 0.02 0.01 0.01 0.02 0.02 0.01 0.02 0.02 0.01 0.01 0.01 0.01 0.00 0.00 0.01 0.01 0.01 0.01 0.01 0.01 0.01 0.01 0.01 0.01 0.05 0.06 0.03 0.01 0.01 0.02
0.00 0.00 0.00 0.00 0.00 0.00 0.00 0.00 0.00 0.01 0.00 0.00 0.00 0.00 0.01 0.01 0.01 0.01 0.01 0.01 0.02 0.02 0.01 0.01 0.01 0.01 0.01 0.01 0.02 0.01 0.01 0.01 0.02 0.02 0.01 0.01 0.00 0.00 0.01 0.02 0.02 0.02 0.02 0.02
0.01 0.01 0.01 0.00 0.00 0.00 0.00 0.01 0.01 0.01 0.01 0.01 0.00 0.00 0.00 0.01 0.01 0.01 0.01 0.01 0.01 0.01 0.01 0.01 0.01 0.02 0.02 0.02 0.02 0.02 0.03 0.04 0.03 0.02 0.01 0.01 0.01 0.01 0.01 0.01 0.01 0.01 0.01 0.01
0.01 0.01 0.01 0.00 0.00 0.00 0.00 0.00 0.01 0.02 0.01 0.01 0.00 0.00 0.00 0.00 0.00 0.01 0.01 0.01 0.00 0.01 0.01 0.01 0.01 0.03 0.03 0.04 0.03 0.03 0.06 0.04 0.03 0.03 0.03 0.02 0.01 0.01 0.01 0.00 0.00 0.00 0.00 0.01
0.01 0.01 0.01 0.00 0.00 0.00 0.01 0.01 0.02 0.03 0.02 0.01 0.00 0.00 0.00 0.00 0.00 0.00 0.01 0.00 0.00 0.01 0.01 0.01 0.02 0.03 0.06 0.06 0.04 0.05 0.04 0.03 0.03 0.03 0.03 0.02 0.01 0.00 0.00 0.00 0.01 0.01 0.01 0.01
0.02 0.01 0.00 0.00 0.00 0.01 0.01 0.02 0.02 0.03 0.03 0.01 0.00 0.00 0.00 0.01 0.00 0.01 0.01 0.01 0.01 0.01 0.02 0.02 0.03 0.03 0.07 0.08 0.06 0.05 0.04 0.04 0.03 0.03 0.03 0.02 0.02 0.01 0.01 0.01 0.01 0.01 0.02 0.02
0.01 0.01 0.00 0.00 0.00 0.02 0.02 0.01 0.01 0.01 0.01 0.01 0.01 0.00 0.00 0.00 0.00 0.00 0.00 0.01 0.01 0.01 0.02 0.02 0.02 0.03 0.04 0.06 0.04 0.03 0.03 0.04 0.04 0.04 0.03 0.03 0.03 0.02 0.01 0.01 0.02 0.02 0.03 0.03
0.01 0.01 0.01 0.01 0.01 0.01 0.02 0.02 0.01 0.01 0.00 0.01 0.01 0.01 0.00 0.00 0.00 0.00 0.00 0.00 0.01 0.01 0.01 0.02 0.02 0.03 0.03 0.04 0.03 0.04 0.04 0.03 0.05 0.06 0.04 0.03 0.03 0.03 0.03 0.03 0.03 0.03 0.03 0.03
0.00 0.01 0.01 0.01 0.01 0.01 0.01 0.01 0.02 0.01 0.01 0.00 0.00 0.00 0.00 0.00 0.00 0.00 0.00 0.00 0.00 0.01 0.01 0.01 0.01 0.02 0.03 0.03 0.04 0.04 0.04 0.04 0.06 0.06 0.05 0.05 0.05 0.05 0.06 0.05 0.03 0.03 0.04 0.03
0.00 0.00 0.00 0.01 0.01 0.01 0.01 0.01 0.01 0.01 0.01 0.01 0.00 0.00 0.00 0.00 0.00 0.00 0.00 0.00 0.00 0.00 0.01 0.01 0.01 0.01 0.02 0.03 0.05 0.06 0.07 0.07 0.07 0.09 0.06 0.07 0.06 0.06 0.06 0.06 0.04 0.03 0.04 0.05
0.00 0.00 0.00 0.00 0.00 0.01 0.01 0.01 0.01 0.01 0.01 0.01 0.00 0.00 0.00 0.00 0.00 0.00 0.00 0.00 0.01 0.01 0.01 0.01 0.01 0.01 0.02 0.04 0.05 0.05 0.06 0.08 0.07 0.06 0.06 0.07 0.08 0.07 0.06 0.06 0.07 0.08 0.08 0.09
0.00 0.00 0.00 0.00 0.00 0.00 0.00 0.00 0.00 0.01 0.01 0.00 0.00 0.00 0.00 0.00 0.00 0.00 0.00 0.01 0.01 0.01 0.01 0.01 0.01 0.01 0.03 0.04 0.04 0.04 0.04 0.05 0.04 0.06 0.08 0.08 0.06 0.05 0.06 0.06 0.06 0.06 0.07 0.08
0.00 0.00 0.00 0.00 0.00 0.00 0.00 0.00 0.00 0.00 0.00 0.00 0.00 0.00 0.00 0.00 0.00 0.00 0.00 0.00 0.01 0.01 0.01 0.01 0.01 0.01 0.02 0.03 0.04 0.04 0.04 0.05 0.07 0.07 0.06 0.04 0.05 0.05 0.06 0.06 0.07 0.07 0.06 0.05
0.00 0.00 0.00 0.00 0.00 0.00 0.00 0.00 0.00 0.00 0.00 0.00 0.00 0.00 0.00 0.00 0.00 0.00 0.00 0.00 0.00 0.00 0.00 0.01 0.02 0.04 0.05 0.05 0.06 0.06 0.06 0.08 0.10 0.06 0.04 0.03 0.04 0.04 0.06 0.07 0.08 0.10 0.09 0.06
0.00 0.00 0.00 0.00 0.00 0.00 0.00 0.00 0.00 0.00 0.00 0.00 0.00 0.00 0.00 0.00 0.00 0.00 0.00 0.01 0.01 0.01 0.01 0.02 0.02 0.04 0.04 0.05 0.05 0.07 0.07 0.07 0.07 0.06 0.05 0.04 0.03 0.04 0.05 0.05 0.05 0.07 0.08 0.06
0.00 0.00 0.00 0.00 0.00 0.00 0.00 0.00 0.00 0.00 0.00 0.00 0.00 0.00 0.00 0.00 0.00 0.00 0.01 0.01 0.02 0.01 0.01 0.02 0.02 0.02 0.02 0.02 0.02 0.03 0.03 0.03 0.03 0.04 0.05 0.04 0.04 0.04 0.04 0.04 0.04 0.04 0.04 0.04
0.00 0.00 0.00 0.00 0.00 0.00 0.00 0.00 0.00 0.00 0.00 0.00 0.00 0.00 0.00 0.00 0.00 0.01 0.01 0.02 0.02 0.01 0.01 0.01 0.02 0.02 0.03 0.04 0.03 0.03 0.03 0.04 0.05 0.06 0.06 0.06 0.06 0.05 0.04 0.03 0.03 0.02 0.04 0.05
0.00 0.00 0.00 0.00 0.00 0.00 0.00 0.01 0.01 0.00 0.00 0.00 0.00 0.00 0.00 0.01 0.01 0.01 0.02 0.02 0.02 0.01 0.01 0.01 0.02 0.02 0.05 0.08 0.12 0.12 0.09 0.08 0.08 0.08 0.08 0.08 0.07 0.06 0.05 0.04 0.02 0.02 0.02 0.02
0.00 0.00 0.00 0.00 0.00 0.00 0.00 0.00 0.01 0.01 0.01 0.00 0.01 0.01 0.01 0.01 0.02 0.02 0.03 0.02 0.02 0.02 0.01 0.02 0.01 0.02 0.04 0.06 0.09 0.11 0.11 0.09 0.07 0.06 0.07 0.06 0.06 0.06 0.06 0.05 0.05 0.05 0.04 0.04
0.00 0.00 0.00 0.00 0.00 0.00 0.00 0.00 0.01 0.01 0.01 0.00 0.01 0.01 0.01 0.02 0.03 0.03 0.03 0.02 0.01 0.02 0.02 0.01 0.01 0.01 0.02 0.03 0.04 0.04 0.05 0.05 0.05 0.06 0.06 0.07 0.07 0.07 0.06 0.07 0.07 0.07 0.07 0.07
0.00 0.00 0.00 0.00 0.00 0.00 0.00 0.00 0.01 0.01 0.01 0.01 0.01 0.01 0.02 0.02 0.03 0.03 0.01 0.01 0.01 0.01 0.02 0.02 0.01 0.01 0.01 0.02 0.02 0.03 0.05 0.07 0.08 0.09 0.09 0.08 0.08 0.09 0.09 0.08 0.08 0.08 0.09 0.09
0.01 0.01 0.01 0.00 0.00 0.00 0.00 0.00 0.01 0.01 0.01 0.01 0.01 0.00 0.01 0.02 0.03 0.03 0.01 0.00 0.01 0.01 0.02 0.01 0.01 0.01 0.01 0.02 0.02 0.04 0.05 0.06 0.07 0.08 0.07 0.06 0.07 0.08 0.11 0.12 0.12 0.12 0.13 0.14
0.01 0.01 0.01 0.01 0.01 0.00 0.00 0.00 0.00 0.00 0.00 0.00 0.01 0.01 0.01 0.02 0.01 0.01 0.01 0.00 0.01 0.01 0.01 0.02 0.02 0.02 0.03 0.03 0.02 0.03 0.03 0.03 0.03 0.03 0.03 0.04 0.04 0.05 0.08 0.09 0.08 0.08 0.07 0.07
0.01 0.01 0.01 0.01 0.01 0.00 0.00 0.00 0.00 0.00 0.00 0.00 0.01 0.01 0.01 0.02 0.01 0.01 0.01 0.01 0.01 0.02 0.02 0.03 0.03 0.04 0.05 0.05 0.04 0.04 0.04 0.04 0.04 0.04 0.05 0.05 0.05 0.05 0.05 0.06 0.06 0.07 0.07 0.07
0.02 0.01 0.01 0.01 0.01 0.00 0.00 0.00 0.00 0.00 0.01 0.01 0.01 0.01 0.01 0.02 0.01 0.01 0.01 0.01 0.01 0.03 0.04 0.04 0.04 0.04 0.04 0.07 0.07 0.03 0.03 0.04 0.05 0.06 0.06 0.06 0.06 0.05 0.05 0.05 0.05 0.06 0.06 0.07
MSLP
1009.63 1010.76 1011.69 1012.42 1012.95 1013.34 1013.64 1013.89 1014.12 1014.34 1014.52 1014.63 1014.64 1014.54 1014.33 1014.04 1013.72 1013.41 1013.16 1013.00 1012.94 1012.96 1013.03 1013.13 1013.21 1013.27 1013.29 1013.31 1013.34 1013.41 1013.54 1013.75 1014.01 1014.32 1014.64 1014.92 1015.15 1015.31 1015.39 1015.41 1015.38 1015.33 1015.28 1015.25
1010.19 1011.08 1011.76 1012.26 1012.64 1012.94 1013.25 1013.60 1013.98 1014.38 1014.72 1014.97 1015.06 1014.97 1014.72 1014.34 1013.91 1013.51 1013.20 1013.01 1012.96 1013.03 1013.17 1013.33 1013.46 1013.53 1013.55 1013.53 1013.51 1013.53 1013.64 1013.84 1014.14 1014.50 1014.89 1015.24 1015.54 1015.74 1015.83 1015.84 1015.79 1015.70 1015.61 1015.55
1010.52 1011.14 1011.56 1011.85 1012.08 1012.35 1012.72 1013.20 1013.79 1014.40 1014.95 1015.35 1015.52 1015.43 1015.12 1014.63 1014.08 1013.57 1013.17 1012.95 1012.91 1013.03 1013.23 1013.46 1013.64 1013.74 1013.76 1013.72 1013.66 1013.65 1013.73 1013.94 1014.27 1014.69 1015.14 1015.58 1015.94 1016.19 1016.32 1016.33 1016.26 1016.15 1016.04 1015.95
1010.68 1011.03 1011.21 1011.32 1011.47 1011.75 1012.23 1012.91 1013.73 1014.58 1015.33 1015.86 1016.09 1015.99 1015.59 1014.97 1014.27 1013.62 1013.13 1012.85 1012.81 1012.96 1013.23 1013.52 1013.76 1013.89 1013.92 1013.86 1013.77 1013.73 1013.80 1014.01 1014.36 1014.83 1015.36 1015.87 1016.31 1016.63 1016.80 1016.83 1016.77 1016.66 1016.53 1016.43
1010.74 1010.85 1010.84 1010.84 1010.96 1011.32 1011.96 1012.86 1013.92 1014.99 1015.92 1016.56 1016.81 1016.66 1016.14 1015.37 1014.51 1013.71 1013.10 1012.76 1012.69 1012.87 1013.18 1013.54 1013.83 1014.00 1014.04 1013.97 1013.86 1013.79 1013.83 1014.04 1014.41 1014.92 1015.50 1016.09 1016.60 1016.98 1017.21 1017.29 1017.25 1017.15 1017.04 1016.94
1010.75 1010.68 1010.55 1010.50 1010.67 1011.15 1011.98 1013.09 1014.37 1015.64 1016.70 1017.40 1017.64 1017.40 1016.74 1015.80 1014.76 1013.81 1013.09 1012.68 1012.60 1012.79 1013.15 1013.56 1013.90 1014.11 1014.16 1014.08 1013.95 1013.85 1013.86 1014.05 1014.42 1014.95 1015.57 1016.21 1016.79 1017.24 1017.53 1017.66 1017.67 1017.60 1017.50 1017.43
1010.74 1010.56 1010.38 1010.36 1010.62 1011.26 1012.27 1013.58 1015.03 1016.43 1017.56 1018.27 1018.45 1018.09 1017.29 1016.19 1015.00 1013.92 1013.11 1012.65 1012.56 1012.77 1013.17 1013.63 1014.02 1014.26 1014.32 1014.24 1014.08 1013.94 1013.92 1014.08 1014.43 1014.96 1015.61 1016.28 1016.91 1017.41 1017.75 1017.94 1017.99 1017.96 1017.90 1017.85
1010.71 1010.49 1010.33 1010.39 1010.79 1011.57 1012.74 1014.20 1015.76 1017.20 1018.34 1018.99 1019.08 1018.60 1017.67 1016.44 1015.15 1013.99 1013.13 1012.66 1012.57 1012.82 1013.26 1013.77 1014.19 1014.46 1014.54 1014.45 1014.27 1014.11 1014.05 1014.17 1014.50 1015.01 1015.65 1016.34 1016.99 1017.53 1017.92 1018.14 1018.24 1018.24 1018.22 1018.20
1010.64 1010.45 1010.37 1010.55 1011.07 1011.99 1013.27 1014.79 1016.36 1017.79 1018.85 1019.40 1019.38 1018.80 1017.77 1016.48 1015.14 1013.98 1013.13 1012.69 1012.65 1012.94 1013.43 1013.97 1014.43 1014.72 1014.81 1014.72 1014.53 1014.35 1014.26 1014.35 1014.64 1015.13 1015.75 1016.43 1017.09 1017.64 1018.06 1018.31 1018.44 1018.48 1018.47 1018.47
1010.52 1010.41 1010.45 1010.75 1011.39 1012.39 1013.71 1015.21 1016.72 1018.03 1018.97 1019.39 1019.25 1018.59 1017.53 1016.24 1014.95 1013.85 1013.08 1012.72 1012.76 1013.10 1013.64 1014.22 1014.70 1015.00 1015.10 1015.02 1014.83 1014.64 1014.54 1014.61 1014.88 1015.34 1015.94 1016.60 1017.24 1017.80 1018.22 1018.49 1018.64 1018.69 1018.71 1018.72
1010.36 1010.36 1010.53 1010.95 1011.68 1012.70 1013.98 1015.38 1016.74 1017.87 1018.63 1018.91 1018.67 1017.98 1016.94 1015.74 1014.57 1013.62 1012.99 1012.75 1012.87 1013.28 1013.85 1014.44 1014.93 1015.23 1015.34 1015.27 1015.09 1014.92 1014.83 1014.91 1015.17 1015.61 1016.19 1016.83 1017.46 1018.00 1018.42 1018.70 1018.86 1018.93 1018.96 1018.98
1010.18 1010.33 1010.63 1011.15 1011.91 1012.91 1014.07 1015.29 1016.43 1017.34 1017.90 1018.03 1017.72 1017.03 1016.09 1015.04 1014.06 1013.30 1012.85 1012.75 1012.98 1013.44 1014.02 1014.60 1015.06 1015.35 1015.45 1015.40 1015.25 1015.12 1015.07 1015.17 1015.45 1015.89 1016.46 1017.09 1017.70 1018.24 1018.65 1018.94 1019.11 1019.20 1019.24 1019.28
1010.05 1010.34 1010.76 1011.35 1012.11 1013.02 1014.02 1015.02 1015.89 1016.55 1016.89 1016.88 1016.53 1015.89 1015.08 1014.23 1013.48 1012.94 1012.68 1012.73 1013.04 1013.52 1014.09 1014.62 1015.04 1015.30 1015.39 1015.35 1015.25 1015.16 1015.17 1015.33 1015.65 1016.12 1016.69 1017.32 1017.92 1018.46 1018.88 1019.18 1019.38 1019.49 1019.55 1019.61
1010.03 1010.46 1010.98 1011.60 1012.32 1013.10 1013.89 1014.63 1015.23 1015.62 1015.76 1015.62 1015.24 1014.68 1014.03 1013.40 1012.88 1012.57 1012.50 1012.67 1013.03 1013.51 1014.03 1014.50 1014.85 1015.06 1015.13 1015.11 1015.06 1015.04 1015.12 1015.35 1015.72 1016.23 1016.82 1017.45 1018.07 1018.61 1019.05 1019.38 1019.61 1019.77 1019.88 1019.97
1010.17 1010.70 1011.29 1011.92 1012.56 1013.18 1013.75 1014.22 1014.54 1014.68 1014.62 1014.38 1014.00 1013.52 1013.03 1012.61 1012.32 1012.21 1012.30 1012.55 1012.94 1013.40 1013.84 1014.22 1014.49 1014.65 1014.70 1014.70 1014.70 1014.76 1014.93 1015.22 1015.66 1016.20 1016.83 1017.47 1018.10 1018.66 1019.12 1019.50 1019.78 1020.00 1020.17 1020.32
1010.48 1011.08 1011.69 1012.28 1012.82 1013.27 1013.61 1013.82 1013.87 1013.79 1013.56 1013.24 1012.86 1012.47 1012.13 1011.89 1011.80 1011.85 1012.06 1012.37 1012.76 1013.17 1013.53 1013.82 1014.02 1014.13 1014.18 1014.20 1014.26 1014.39 1014.63 1015.00 1015.49 1016.07 1016.71 1017.37 1018.01 1018.59 1019.09 1019.52 1019.87 1020.16 1020.41 1020.63
1010.93 1011.54 1012.12 1012.64 1013.04 1013.32 1013.44 1013.41 1013.24 1012.96 1012.60 1012.21 1011.84 1011.52 1011.31 1011.23 1011.29 1011.47 1011.76 1012.11 1012.49 1012.84 1013.14 1013.36 1013.50 1013.59 1013.64 1013.71 1013.82 1014.02 1014.33 1014.76 1015.28 1015.88 1016.53 1017.19 1017.83 1018.43 1018.97 1019.45 1019.87 1020.25 1020.58 1020.88
1011.44 1012.00 1012.50 1012.90 1013.15 1013.24 1013.16 1012.93 1012.58 1012.15 1011.69 1011.27 1010.91 1010.67 1010.56 1010.59 1010.76 1011.04 1011.38 1011.76 1012.12 1012.45 1012.71 1012.89 1013.02 1013.11 1013.19 1013.31 1013.49 1013.75 1014.11 1014.56 1015.10 1015.70 1016.33 1016.98 1017.61 1018.22 1018.79 1019.32 1019.81 1020.27 1020.68 1021.06
1011.91 1012.35 1012.71 1012.96 1013.04 1012.95 1012.70 1012.31 1011.82 1011.30 1010.79 1010.35 1010.03 1009.84 1009.82 1009.94 1010.20 1010.54 1010.93 1011.32 1011.70 1012.02 1012.27 1012.47 1012.62 1012.75 1012.89 1013.07 1013.31 1013.62 1014.01 1014.48 1015.00 1015.57 1016.17 1016.78 1017.39 1017.99 1018.59 1019.16 1019.72 1020.24 1020.74 1021.18
1012.22 1012.48 1012.67 1012.73 1012.64 1012.39 1012.00 1011.50 1010.93 1010.36 1009.84 1009.43 1009.15 1009.04 1009.08 1009.28 1009.59 1009.99 1010.41 1010.84 1011.24 1011.59 1011.88 1012.12 1012.34 1012.54 1012.76 1013.00 1013.30 1013.64 1014.04 1014.49 1014.98 1015.50 1016.04 1016.61 1017.19 1017.79 1018.39 1019.01 1019.61 1020.20 1020.76 1021.26
1012.30 1012.34 1012.31 1012.18 1011.92 1011.53 1011.04 1010.48 1009.90 1009.34 1008.86 1008.51 1008.30 1008.26 1008.37 1008.63 1008.99 1009.42 1009.89 1010.36 1010.79 1011.19 1011.55 1011.87 1012.17 1012.46 1012.76 1013.07 1013.40 1013.76 1014.15 1014.56 1015.00 1015.45 1015.94 1016.45 1017.00 1017.59 1018.21 1018.86 1019.51 1020.16 1020.76 1021.31
1012.09 1011.90 1011.64 1011.32 1010.91 1010.42 1009.88 1009.32 1008.77 1008.28 1007.89 1007.62 1007.51 1007.55 1007.73 1008.04 1008.44 1008.91 1009.41 1009.92 1010.41 1010.87 1011.30 1011.71 1012.09 1012.47 1012.83 1013.19 1013.55 1013.90 1014.26 1014.62 1014.98 1015.37 1015.80 1016.27 1016.79 1017.38 1018.02 1018.70 1019.40 1020.09 1020.75 1021.33
1011.60 1011.17 1010.71 1010.22 1009.69 1009.15 1008.61 1008.09 1007.63 1007.26 1006.99 1006.84 1006.84 1006.97 1007.22 1007.58 1008.02 1008.51 1009.04 1009.58 1010.11 1010.63 1011.13 1011.61 1012.07 1012.51 1012.92 1013.30 1013.65 1013.98 1014.28 1014.57 1014.87 1015.20 1015.57 1016.01 1016.52 1017.12 1017.79 1018.51 1019.26 1020.00 1020.70 1021.32
1010.86 1010.24 1009.60 1008.99 1008.40 1007.84 1007.35 1006.93 1006.59 1006.36 1006.24 1006.24 1006.35 1006.57 1006.89 1007.29 1007.76 1008.26 1008.80 1009.36 1009.92 1010.48 1011.03 1011.56 1012.06 1012.53 1012.95 1013.33 1013.65 1013.93 1014.16 1014.39 1014.62 1014.89 1015.22 1015.64 1016.16 1016.79 1017.50 1018.28 1019.08 1019.87 1020.61 1021.27
1009.96 1009.18 1008.43 1007.74 1007.14 1006.62 1006.22 1005.92 1005.74 1005.67 1005.71 1005.85 1006.08 1006.38 1006.76 1007.18 1007.66 1008.16 1008.70 1009.26 1009.83 1010.40 1010.97 1011.52 1012.04 1012.51 1012.92 1013.26 1013.53 1013.74 1013.91 1014.07 1014.24 1014.47 1014.78 1015.20 1015.74 1016.40 1017.16 1018.00 1018.86 1019.70 1020.48 1021.17
1008.96 1008.09 1007.29 1006.60 1006.02 1005.59 1005.30 1005.15 1005.13 1005.22 1005.41 1005.67 1006.00 1006.37 1006.78 1007.22 1007.69 1008.18 1008.70 1009.25 1009.81 1010.38 1010.95 1011.49 1012.00 1012.44 1012.82 1013.11 1013.32 1013.47 1013.58 1013.68 1013.80 1014.00 1014.31 1014.74 1015.31 1016.01 1016.83 1017.71 1018.62 1019.51 1020.33 1021.05
Thickness
5808 5795 5785 5792 5797 5797 5793 5785 5781 5789 5803 5793 5785 5786 5792 5798 5797 5794 5792 5792 5791 5792 5795 5797 5797 5796 5794 5792 5791 5789 5788 5786 5785 5783 5780 5777 5776 5776 5776 5777 5776 5776 5775 5774
5790 5786 5801 5806 5805 5800 5793 5784 5782 5790 5801 5793 5783 5783 5793 5797 5797 5797 5795 5793 5792 5792 5792 5794 5795 5795 5792 5790 5789 5788 5787 5786 5785 5783 5780 5778 5777 5775 5775 5775 5774 5774 5774 5773
5786 5795 5808 5805 5799 5794 5791 5786 5786 5785 5792 5792 5784 5776 5784 5794 5797 5798 5797 5796 5795 5793 5792 5792 5793 5792 5791 5789 5788 5788 5786 5785 5784 5783 5780 5778 5775 5773 5772 5771 5771 5771 5771 5771
5790 5802 5805 5799 5796 5796 5783 5800 5797 5790 5777 5766 5776 5754 5775 5783 5787 5792 5793 5793 5794 5795 5794 5792 5792 5791 5790 5789 5789 5787 5786 5784 5783 5781 5778 5774 5770 5767 5767 5768 5768 5769 5769 5769
5789 5799 5799 5795 5800 5803 5796 5804 5796 5787 5774 5763 5765 5755 5764 5778 5778 5785 5791 5794 5794 5795 5794 5792 5792 5791 5790 5790 5788 5786 5784 5782 5781 5779 5777 5773 5769 5768 5767 5767 5766 5766 5766 5766
5794 5807 5808 5806 5811 5810 5805 5793 5782 5770 5760 5747 5758 5752 5757 5769 5780 5787 5792 5794 5794 5794 5794 5793 5792 5791 5789 5788 5786 5783 5781 5779 5779 5776 5774 5772 5769 5766 5765 5764 5763 5762 5762 5763
5783 5796 5808 5813 5800 5801 5794 5769 5745 5742 5733 5739 5757 5753 5760 5784 5792 5794 5793 5794 5795 5794 5792 5790 5789 5787 5786 5785 5783 5780 5778 5776 5775 5773 5771 5770 5768 5766 5764 5762 5761 5760 5759 5759
5764 5767 5797 5807 5800 5788 5784 5773 5744 5733 5729 5737 5752 5749 5771 5793 5797 5798 5796 5795 5794 5792 5791 5789 5788 5787 5785 5783 5781 5779 5775 5773 5772 5770 5769 5768 5766 5763 5762 5761 5760 5759 5758 5757
5761 5767 5799 5808 5811 5800 5780 5769 5770 5745 5739 5734 5742 5756 5777 5791 5791 5792 5792 5791 5790 5790 5789 5787 5786 5785 5783 5781 5779 5777 5774 5771 5769 5767 5766 5764 5763 5761 5759 5758 5757 5756 5755 5755
5777 5769 5788 5799 5804 5797 5791 5773 5754 5740 5727 5725 5741 5748 5757 5775 5780 5784 5785 5786 5787 5786 5786 5785 5784 5783 5781 5779 5777 5774 5772 5769 5767 5765 5763 5762 5759 5758 5757 5755 5753 5752 5752 5751
5781 5767 5774 5785 5783 5778 5778 5768 5752 5737 5737 5725 5724 5743 5779 5780 5783 5783 5785 5785 5784 5783 5782 5781 5780 5779 5778 5776 5773 5770 5768 5765 5763 5761 5759 5757 5755 5754 5753 5751 5750 5749 5748 5747
5775 5760 5753 5769 5786 5791 5785 5773 5757 5745 5735 5729 5727 5745 5788 5785 5786 5785 5784 5783 5782 5781 5780 5778 5776 5773 5771 5769 5768 5766 5764 5761 5759 5757 5755 5753 5751 5750 5748 5746 5745 5744 5743 5742
5772 5755 5740 5746 5759 5773 5772 5769 5761 5748 5733 5723 5725 5748 5782 5782 5781 5781 5780 5779 5777 5775 5774 5771 5769 5767 5765 5764 5763 5762 5760 5757 5754 5752 5750 5748 5746 5744 5742 5741 5740 5740 5738 5737
5776 5751 5744 5739 5747 5761 5764 5765 5760 5750 5733 5728 5736 5753 5768 5772 5773 5774 5774 5774 5772 5770 5768 5765 5762 5761 5760 5759 5758 5756 5755 5753 5750 5747 5745 5743 5741 5739 5738 5736 5735 5734 5733 5731
5768 5749 5752 5755 5764 5765 5764 5764 5760 5756 5749 5742 5749 5753 5765 5770 5772 5772 5771 5770 5767 5764 5762 5760 5758 5756 5755 5754 5753 5751 5750 5748 5746 5743 5740 5738 5736 5734 5732 5731 5729 5728 5726 5725
5753 5745 5746 5748 5757 5758 5756 5760 5759 5756 5754 5752 5754 5755 5770 5771 5769 5766 5765 5765 5762 5761 5760 5758 5755 5753 5751 5750 5748 5747 5745 5744 5741 5738 5735 5733 5730 5728 5726 5725 5723 5721 5719 5717
5738 5737 5729 5727 5742 5748 5738 5752 5754 5754 5756 5754 5749 5759 5765 5762 5762 5761 5760 5760 5760 5759 5757 5755 5753 5750 5748 5747 5745 5742 5741 5739 5736 5732 5730 5728 5725 5722 5721 5720 5717 5715 5713 5711
5732 5724 5714 5714 5727 5717 5741 5761 5760 5753 5754 5756 5758 5760 5761 5760 5759 5759 5758 5756 5755 5755 5753 5751 5748 5746 5744 5743 5740 5738 5735 5733 5730 5726 5724 5722 5719 5717 5715 5713 5711 5709 5707 5704
5730 5721 5707 5701 5705 5716 5738 5752 5752 5746 5745 5755 5752 5754 5754 5755 5752 5750 5753 5753 5752 5751 5749 5747 5744 5741 5738 5736 5734 5731 5728 5726 5722 5720 5718 5716 5714 5711 5709 5707 5705 5703 5700 5698
5718 5717 5705 5697 5702 5702 5729 5749 5755 5747 5735 5750 5749 5747 5745 5746 5734 5739 5748 5748 5747 5745 5743 5740 5738 5735 5731 5729 5727 5723 5721 5718 5716 5715 5713 5711 5709 5706 5704 5702 5699 5697 5695 5692
5704 5700 5697 5694 5697 5708 5732 5743 5747 5725 5729 5745 5744 5742 5739 5737 5738 5742 5744 5742 5741 5738 5736 5734 5731 5727 5724 5722 5720 5716 5713 5711 5711 5709 5707 5704 5702 5700 5698 5695 5693 5690 5687 5685
5693 5691 5688 5687 5691 5702 5732 5733 5727 5728 5738 5739 5738 5737 5735 5734 5736 5736 5736 5735 5733 5730 5728 5725 5722 5719 5717 5715 5712 5708 5706 5705 5703 5701 5699 5696 5694 5693 5691 5687 5685 5683 5680 5677
5688 5692 5690 5693 5700 5715 5722 5726 5730 5730 5730 5731 5732 5733 5732 5730 5728 5727 5726 5725 5724 5722 5719 5717 5714 5710 5708 5707 5704 5700 5698 5697 5695 5692 5690 5688 5686 5684 5682 5679 5677 5675 5673 5670
5687 5689 5688 5691 5701 5710 5716 5720 5723 5725 5725 5727 5728 5728 5727 5724 5721 5719 5717 5715 5714 5713 5710 5708 5705 5702 5699 5698 5696 5693 5691 5688 5686 5684 5682 5681 5678 5675 5673 5671 5669 5667 5665 5661
5683 5683 5681 5684 5695 5702 5709 5712 5714 5716 5719 5719 5720 5721 5719 5717 5714 5711 5709 5707 5705 5703 5702 5699 5696 5693 5691 5689 5687 5685 5682 5680 5677 5675 5674 5672 5670 5668 5665 5663 5660 5659 5657 5655
5677 5677 5677 5681 5690 5691 5696 5704 5707 5707 5709 5710 5711 5710 5710 5708 5705 5703 5699 5698 5697 5695 5693 5690 5687 5685 5682 5680 5678 5675 5673 5671 5669 5666 5665 5664 5662 5659 5657 5654 5652 5651 5649 5648